This demonstration page uses our WeatherBlox Daily Observations layout. Learn more.

Left ArrowRight Arrow

39.92423, -83.80882

Hourly Observations for January 16, 2019

Temp ( °F °C ) Dew Point ( °F °C ) Humidity (%) Winds ( mph kmh ) Pressure ( in mb ) Visibility ( mi km ) Precip ( " mm )
12:46 am 00:46 Cloudy with Mist and Fog 30 -1 30 -1 100 100 SW 16 26 30.15 1021 3 4 N/A
12:56 am 00:56 Cloudy with Mist and Fog 30 -1.1 30 -1.1 100 100 SW 20 31 30.13 1020 3 4 N/A
1:08 am 01:08 Cloudy with Mist and Fog 30 -1 30 -1 100 100 WSW 18 30 30.15 1021 3 5 N/A
1:36 am 01:36 Cloudy with Mist and Fog 30 -1 30 -1 100 100 WSW 17 28 30.15 1021 3 4 N/A
1:46 am 01:46 Cloudy with Light Snow 30 -1 30 -1 100 100 WSW 16 26 30.15 1021 2 3 N/A
1:56 am 01:56 Cloudy with Light Snow 31 -0.6 31 -0.6 100 100 WSW 14 22 30.14 1021 2 3 N/A
2:56 am 02:56 Cloudy with Light Snow 31 -0.6 31 -0.6 100 100 WSW 14 22 30.16 1021 2 3 N/A
3:33 am 03:33 Cloudy with Light Snow 30 -1 30 -1 100 100 WSW 14 22 30.18 1022 2 3 N/A
3:56 am 03:56 Cloudy with Light Snow 31 -0.6 31 -0.6 100 100 WSW 13 20 30.16 1021 2 3 N/A
4:44 am 04:44 Cloudy with Light Freezing Rain 32 undefined 32 undefined 100 100 W 14 22 30.18 1022 2 3 N/A
4:56 am 04:56 Cloudy with Light Freezing Rain 32 undefined 32 undefined 100 100 W 15 24 30.16 1021 3 5 N/A
5:38 am 05:38 Cloudy with Light Freezing Rain 30 -1 30 -1 100 100 W 15 24 30.18 1022 2 3 N/A
5:47 am 05:47 Cloudy with Light Freezing Rain 30 -1 30 -1 100 100 W 12 19 30.21 1023 2 3 N/A
5:54 am 05:54 Cloudy with Light Snow 30 -1 30 -1 100 100 W 12 19 30.21 1023 3 4 N/A
5:56 am 05:56 Cloudy with Light Snow 31 -0.6 31 -0.6 100 100 WNW 16 26 30.19 1022 3 4 N/A
6:07 am 06:07 Cloudy with Light Snow 30 -1 30 -1 100 100 WNW 15 24 30.21 1023 3 5 N/A
6:18 am 06:18 Cloudy with Light Snow 30 -1 28 -2 93 93 WNW 14 22 30.21 1023 3 5 N/A
6:47 am 06:47 Cloudy with Light Snow 30 -1 28 -2 93 93 WNW 12 19 30.24 1024 3 4 N/A
6:54 am 06:54 Cloudy with Light Snow 28 -2 28 -2 100 100 WNW 10 17 30.24 1024 4 6 N/A
6:56 am 06:56 Cloudy with Light Snow 29 -1.7 29 -1.7 100 100 WNW 10 17 30.22 1023 5 8 N/A
7:38 am 07:38 Cloudy with Light Snow 28 -2 28 -2 100 100 W 8 13 30.24 1024 9 14 N/A
7:53 am 07:53 Cloudy 30 -1 28 -2 93 93 W 7 11 30.24 1024 10 16 N/A
7:56 am 07:56 Cloudy 29 -1.7 29 -1.7 100 100 W 7 11 30.24 1024 10 16 N/A
8:56 am 08:56 Cloudy with Light Snow 30 -1.1 28 -2.2 92 92 WSW 7 11 30.24 1024 8 13 N/A
9:56 am 09:56 Cloudy with Light Snow 30 -1.1 29 -1.7 96 96 WSW 7 11 30.27 1025 8 13 N/A
9:59 am 09:59 Cloudy with Light Snow 30 -1 28 -2 93 93 W 7 11 30.27 1025 7 11 N/A
10:29 am 10:29 Cloudy 30 -1 28 -2 93 93 W 9 15 30.30 1026 9 14 N/A
10:56 am 10:56 Cloudy 31 -0.6 29 -1.7 92 92 WSW 8 13 30.27 1025 10 16 N/A
11:56 am 11:56 Cloudy 31 -0.6 29 -1.7 92 92 WSW 10 17 30.27 1025 10 16 N/A
12:56 pm 12:56 Cloudy 32 undefined 29 -1.7 88 88 WSW 10 17 30.25 1024 10 16 N/A
1:56 pm 13:56 Cloudy 33 0.6 29 -1.7 85 85 W 9 15 30.25 1024 10 16 N/A
2:56 pm 14:56 Cloudy 33 0.6 29 -1.7 85 85 W 6 9 30.26 1025 10 16 N/A
3:56 pm 15:56 Cloudy 33 0.6 27 -2.8 78 78 WNW 8 13 30.27 1025 10 16 N/A
4:56 pm 16:56 Cloudy 33 0.6 27 -2.8 78 78 WNW 6 9 30.27 1025 10 16 N/A
5:56 pm 17:56 Cloudy 31 -0.6 28 -2.2 89 89 WSW 3 6 30.29 1026 10 16 N/A
6:56 pm 18:56 Cloudy 31 -0.6 28 -2.2 89 89 N N/A 30.31 1026 10 16 N/A
7:56 pm 19:56 Cloudy 31 -0.6 28 -2.2 89 89 N N/A 30.30 1026 10 16 N/A
8:56 pm 20:56 Cloudy 31 -0.6 28 -2.2 89 89 S 3 6 30.31 1026 10 16 N/A
9:56 pm 21:56 Cloudy 31 -0.6 28 -2.2 89 89 S 5 7 30.32 1027 10 16 N/A
10:56 pm 22:56 Cloudy 31 -0.6 27 -2.8 85 85 S 5 7 30.32 1027 10 16 N/A
11:56 pm 23:56 Cloudy 31 -0.6 27 -2.8 85 85 S 5 7 30.31 1026 10 16 N/A

Powered by AerisWeather